Flag for U.S.A. Weather past 2 weeks in Fairbanks, Alaska, U.S.A.

Now
44 °F

Mostly cloudy.


Feels Like: 40 °F
Forecast: 44 / 52 °F
Wind: 7 mph from East

Location: Wainwright U. S. Army Airfield

Current Time: Sep 20, 2014 at 7:06:59 AM

Latest Report: Sep 20, 2014 at 4:56 AM


Visibility: 10 mi

Pressure: 29.47 "Hg

Humidity: 85%

Dew point: 40 °F

Location of FairbanksLocation

Historic Weather in Fairbanks — Graph

°F

Fairbanks temperature yesterday

Maximum temperature yesterday: 61 °F (at 2:55 PM)
Minimum temperature yesterday: 37 °F (at 7:55 AM)
Average temperature yesterday: 51 °F

Past Weeks' High & Low Weather Summary

 TemperatureHumidityPressure
High79 °F (Sep 17, 12:55 PM)93% (Sep 11, 12:56 AM)30.14 "Hg (Sep 11, 12:56 AM)
Low30 °F (Sep 7, 6:56 AM)21% (Sep 17, 12:55 PM)29.03 "Hg (Sep 18, 5:55 PM)
Average53 °F58%29.73 "Hg
* Reported Sep 5 4:56 AM — Sep 20 4:56 AM, Fairbanks, Weather by CustomWeather, © 2014

Note: Actual official high and low records may vary slightly from our data, if they occured in-between our weather recording intervals... More about our weather records

Advertising

Fairbanks weather history for previous 24 hours

 ConditionsComfort  
Time TempWeatherWind HumidityBarometerVisibility
4:56 AM
Sep 20
44 °FMostly cloudy.7 mph85%29.47 "Hg10 mi
3:56 AM46 °FMostly cloudy.3 mph86%29.47 "Hg10 mi
2:56 AM47 °FOvercast.3 mph83%29.45 "Hg10 mi
1:56 AM49 °FMostly cloudy.No wind80%29.44 "Hg10 mi
12:56 AM49 °FMostly cloudy.No wind77%29.43 "Hg10 mi
11:56 PM
Sep 19
52 °FOvercast.3 mph72%29.41 "Hg10 mi
10:56 PM51 °FOvercast.No wind71%29.40 "Hg10 mi
9:56 PM54 °FOvercast.3 mph67%29.39 "Hg10 mi
8:55 PM55 °FMostly cloudy.3 mph59%29.37 "Hg13 mi
7:55 PM57 °FMore clouds than sun.5 mph55%29.35 "Hg13 mi
6:55 PM57 °FBroken clouds.6 mph51%29.34 "Hg25 mi
5:55 PM61 °FBroken clouds.5 mph42%29.31 "Hg25 mi
4:55 PM61 °FPartly sunny.7 mph42%29.30 "Hg25 mi
3:55 PM61 °FScattered clouds.7 mph39%29.28 "Hg25 mi
2:55 PM61 °FScattered clouds.No wind39%29.28 "Hg25 mi
1:55 PM57 °FScattered clouds.5 mph44%29.28 "Hg25 mi
12:55 PM54 °FScattered clouds.5 mph51%29.27 "Hg25 mi
11:55 AM52 °FScattered clouds.3 mph54%29.25 "Hg25 mi
10:55 AM48 °FScattered clouds.5 mph58%29.24 "Hg25 mi
9:55 AM45 °FScattered clouds.3 mph66%29.22 "Hg25 mi
8:55 AM43 °FScattered clouds.3 mph71%29.20 "Hg13 mi
7:55 AM37 °FPassing clouds.3 mph81%29.18 "Hg13 mi
Weather by CustomWeather, © 2014

See weather overviewHow to use our weather pages